Location: Stone Trail Observatory
(44.2408°N, 105.6081°W)
Time: 05:04:14
(UTC-06:00)

Iridium 6 - Visible Passes

Search period start: 28 March 2015 00:00
Search period end: 07 April 2015 00:00
Orbit: 776 x 779 km, 86.4° (Epoch: 27 March)

Date Brightness Start Highest point End Pass type
(mag) Time Alt. Az. Time Alt. Az. Time Alt. Az.
28 Mar 7.0 20:50:01 10° NNW 20:54:52 39° W 20:59:40 10° SSW visible
29 Mar 5.9 20:16:14 10° N 20:21:27 71° W 20:26:38 10° S visible
30 Mar 8.4 21:24:56 10° NW 21:28:09 16° WNW 21:31:09 10° WSW visible
31 Mar 7.7 20:50:26 10° NNW 20:54:52 28° W 20:59:12 10° SW visible
01 Apr 6.6 20:16:28 10° NNW 20:21:31 50° W 20:26:30 10° SSW visible
02 Apr 8.8 21:26:27 10° WNW 21:28:03 11° WNW 21:29:20 10° W visible
03 Apr 8.3 20:51:01 10° NNW 20:54:50 20° W 20:58:29 10° SW visible
04 Apr 7.4 20:16:48 10° NNW 20:21:31 35° W 20:26:11 10° SSW visible
06 Apr 8.7 20:51:57 10° NW 20:54:46 14° WNW 20:57:19 10° WSW visible
